Printer-friendly version

IAU Minor Planet Center

Minor Planet Center

MPEC 2004-K45 : 2004 KN10

The following Minor Planet Electronic Circular may be linked-to from your own Web pages, but must not otherwise be redistributed electronically.


Read MPEC 2004-K44 Read MPEC 2004-K46


M.P.E.C. 2004-K45                                Issued 2004 May 23, 04:52 UT

     The Minor Planet Electronic Circulars contain information on unusual
         minor planets and routine data on comets.  They are published
   on behalf of Commission 20 of the International Astronomical Union by the
          Minor Planet Center, Smithsonian Astrophysical Observatory,
                          Cambridge, MA 02138, U.S.A.

         Supported in part by the Steven and Michele Kirsch Foundation
             Prepared using the Tamkin Foundation Computer Network

                              MPC@CFA.HARVARD.EDU
          URL http://cfa-www.harvard.edu/iau/mpc.html  ISSN 1523-6714

                                   2004 KN10

Observations:
     K04K10N* C2004 05 21.16431 13 41 49.94 -08 25 41.3          20.9 V EK045691
     K04K10N  C2004 05 21.19128 13 41 55.73 -08 24 19.7          21.3 V EK045691
     K04K10N  C2004 05 21.21763 13 42 01.37 -08 23 00.0          20.6 V EK045691
     K04K10N tC2004 05 21.30012 13 42 19.24 -08 18 48.2                 EK045691
     K04K10N tC2004 05 21.30970 13 42 21.24 -08 18 18.8                 EK045691
     K04K10N tC2004 05 21.31228 13 42 21.85 -08 18 10.5                 EK045691
     K04K10N tC2004 05 21.31486 13 42 22.40 -08 18 02.8                 EK045691
     K04K10N tC2004 05 21.31745 13 42 22.90 -08 17 56.3                 EK045691
     K04K10N tC2004 05 21.31996 13 42 23.46 -08 17 47.6                 EK045691
     K04K10N tC2004 05 21.32254 13 42 24.07 -08 17 39.4                 EK045691
     K04K10N  C2004 05 21.91179 13 44 48.42 -07 47 46.8          20   R EK045621
     K04K10N  C2004 05 21.92261 13 44 50.87 -07 47 14.1                 EK045621
     K04K10N  C2004 05 23.14789 13 50 01.09 -06 43 03.1          20.4 R EK045926
     K04K10N  C2004 05 23.14895 13 50 01.34 -06 43 00.8          20.5 R EK045926
     K04K10N  C2004 05 23.14998 13 50 01.60 -06 42 56.9          20.1 R EK045926
     K04K10N  C2004 05 23.15104 13 50 01.80 -06 42 53.7          19.9 R EK045926
     K04K10N  C2004 05 23.15315 13 50 02.38 -06 42 46.1          19.9 R EK045926
     K04K10N  C2004 05 23.15418 13 50 02.59 -06 42 43.3          20.0 R EK045926
     K04K10N  C2004 05 23.17045 13 50 06.41 -06 41 53.4          20.7 R EK045G90
     K04K10N  C2004 05 23.17511 13 50 07.56 -06 41 38.2          20.5 R EK045G90
     K04K10N  C2004 05 23.17979 13 50 08.61 -06 41 23.9          20.2 R EK045G90

Observer details:
621 Bergisch Gladbach.  Observer W. Bickel.  0.60-m f/5.2 reflector + CCD.
691 Steward Observatory, Kitt Peak.  Observer J. A. Larsen.  0.9-m f/3
    reflector + CCD.
926 Tenagra II Observatory.  Observers P. R. Holvorcem, M. Schwartz.  0.81-m
    f/7 Ritchey-Chretien + CCD.
G90 Three Buttes Observatory, Tucson.  Observer G. R. Jones.  0.4-m
    Ritchey-Chretien + CCD.

Orbital elements:
2004 KN10
Epoch 2004 May 15.0 TT = JDT 2453140.5                  MPC
M 351.81476              (2000.0)            P               Q
n   0.32791727     Peri.   20.81293     -0.25105119     +0.96168073
a   2.0826991      Node   234.80428     -0.90606920     -0.27352658
e   0.4682189      Incl.    7.74992     -0.34060520     +0.01879865
P   3.01           H   23.5           G   0.15
From 21 observations 2004 May 21-23.

Ephemeris:
2004 KN10                a,e,i = 2.08, 0.47, 8                   q = 1.1075
Date    TT    R. A. (2000) Decl.     Delta      r     Elong.  Phase     V
2004 05 15    13 20.66   -13 12.5    0.150    1.142   148.8    27.3    20.9
2004 05 25    13 58.24   -05 02.8    0.128    1.120   144.7    31.5    20.6
2004 06 04    14 52.36   +04 26.0    0.119    1.109   140.8    35.3    20.5
2004 06 14    15 56.16   +12 40.0    0.123    1.109   137.3    38.4    20.7
2004 06 24    16 56.85   +17 13.9    0.140    1.120   135.4    39.6    21.0
2004 07 04    17 45.82   +18 12.1    0.167    1.142   135.7    38.4    21.4
2004 07 14    18 22.22   +16 52.0    0.202    1.173   137.6    35.7    21.8

Kyle E. Smalley              (C) Copyright 2004 MPC           M.P.E.C. 2004-K45

Read MPEC 2004-K44 Read MPEC 2004-K46


Our Web policy. Index to the CBAT/MPC/ICQ pages.


Valid HTML 4.01!